Location: Greenwich
(51.4790°N, 0.0090°E)
Time: 21:15:58
(UTC+01:00)

Altair - Visible Passes

Search period start: 17 June 2025 00:00
Search period end: 27 June 2025 00:00
Orbit: 1502 x 1682 km, 47.2° (Epoch: 16 June)

Date Brightness Start Highest point End Pass type
(mag) Time Alt. Az. Time Alt. Az. Time Alt. Az.
17 Jun 7.6 01:23:52 10° SW 01:32:47 53° SSE 01:42:01 10° E visible
17 Jun 7.6 03:27:32 10° W 03:36:53 70° S 03:46:36 10° E visible
17 Jun 8.4 22:58:07 10° S 23:04:38 22° SE 23:11:17 10° E visible
18 Jun 7.6 00:58:47 10° SW 01:07:38 51° SSE 01:16:45 10° E visible
18 Jun 7.5 03:02:22 10° WSW 03:11:40 70° S 03:21:21 10° E visible
18 Jun 8.4 22:33:26 10° S 22:39:35 20° SE 22:45:50 10° E visible
19 Jun 7.6 00:33:44 10° SW 00:42:29 49° SSE 00:51:30 10° E visible
19 Jun 7.5 02:37:12 10° WSW 02:46:28 69° S 02:56:07 10° E visible
19 Jun 8.5 22:08:50 10° SSE 22:14:33 18° SE 22:20:20 10° E visible
20 Jun 7.6 00:08:41 10° SW 00:17:20 47° SSE 00:26:15 10° E visible
20 Jun 7.5 02:12:01 10° WSW 02:21:16 69° S 02:30:52 10° E visible
20 Jun 7.7 23:43:40 10° SW 23:52:12 44° SSE 00:00:59 10° E visible
21 Jun 7.4 01:46:52 10° WSW 01:56:04 68° S 02:05:37 10° E visible
21 Jun 7.6 03:51:05 10° W 04:00:18 61° SSW 04:09:54 10° ESE visible
21 Jun 7.7 23:18:39 10° SW 23:27:04 42° SSE 23:35:42 10° E visible
22 Jun 7.4 01:21:42 10° WSW 01:30:52 67° S 01:40:22 10° E visible
22 Jun 7.6 03:25:53 10° W 03:35:07 63° SSW 03:44:42 10° ESE visible
22 Jun 7.8 22:53:40 10° SSW 23:01:57 40° SE 23:10:26 10° E visible
23 Jun 7.4 00:56:33 10° WSW 01:05:41 66° S 01:15:07 10° E visible
23 Jun 7.5 03:00:42 10° W 03:09:55 64° SSW 03:19:29 10° ESE visible
23 Jun 7.8 22:28:42 10° SSW 22:36:51 38° SE 22:45:10 10° E visible
24 Jun 7.4 00:31:24 10° WSW 00:40:29 65° SSE 00:49:53 10° E visible
24 Jun 7.5 02:35:31 10° W 02:44:43 66° SSW 02:54:17 10° ESE visible
24 Jun 7.9 22:03:45 10° SSW 22:11:45 35° SE 22:19:54 10° E visible
25 Jun 7.4 00:06:15 10° WSW 00:15:18 63° SSE 00:24:38 10° E visible
25 Jun 7.4 02:10:20 10° W 02:19:32 67° S 02:29:04 10° ESE visible
25 Jun 7.4 23:41:08 10° WSW 23:50:08 62° SSE 23:59:24 10° E visible
26 Jun 7.4 01:45:09 10° W 01:54:20 68° S 02:03:50 10° ESE visible
26 Jun 7.8 03:49:33 10° W 03:58:13 44° SSW 04:07:13 10° SE visible
26 Jun 7.4 23:16:00 10° WSW 23:24:57 60° SSE 23:34:10 10° E visible
